Location: Brahman Valley
(40.6513°N, 111.8855°W)
Time: 02:14:02
(UTC+00:00)

Vanguard 3 - All Passes

Search period start: 12 May 2021 00:00
Search period end: 22 May 2021 00:00
Orbit: 508 x 3262 km, 33.3° (Epoch: 11 May)

Date Brightness Start Highest point End Pass type
(mag) Time Alt. Az. Time Alt. Az. Time Alt. Az.
12 May - 00:05:34 10° SSW 00:23:08 41° SSE 00:38:12 10° E daylight
12 May - 02:19:22 10° WSW 02:38:33 61° S 02:51:46 10° E daylight
12 May - 04:36:22 10° W 04:53:23 62° S 05:03:26 10° ESE visible
12 May - 06:54:20 10° W 07:05:57 35° SW 07:13:04 10° SSE visible
12 May - 22:51:37 10° SSW 23:06:54 31° SE 23:21:41 10° E daylight
13 May - 01:02:55 10° SW 01:21:57 55° SSE 01:36:59 10° E daylight
13 May - 03:18:39 10° WSW 03:37:30 66° S 03:49:37 10° ESE visible
13 May - 05:36:21 10° W 05:51:31 51° SSW 06:00:27 10° SE visible
13 May - 07:55:21 10° W 08:02:41 19° SW 08:07:59 10° S visible
13 May - 21:39:42 10° S 21:51:10 20° SE 22:03:07 10° E daylight
13 May - 23:47:33 10° SW 00:05:19 45° SSE 00:21:26 10° E daylight
14 May - 02:01:26 10° WSW 02:21:02 64° S 02:35:14 10° E daylight
14 May - 04:18:25 10° W 04:36:13 62° SSW 04:47:06 10° ESE visible
14 May - 06:36:36 10° W 06:48:57 34° SW 06:56:40 10° SSE visible
14 May - 22:33:31 10° SSW 22:49:02 34° SE 23:04:51 10° E daylight
15 May - 00:45:04 10° SW 01:04:13 58° SSE 01:20:15 10° E daylight
15 May - 03:00:44 10° W 03:20:07 67° S 03:33:10 10° ESE visible
15 May - 05:18:26 10° W 05:34:23 49° SSW 05:44:05 10° SE visible
15 May - 07:38:02 10° W 07:45:38 18° SW 07:51:14 10° S visible
15 May - 21:21:15 10° S 21:33:19 23° SE 21:46:31 10° E daylight
15 May - 23:29:45 10° SW 23:47:27 49° SSE 00:04:31 10° E daylight
16 May - 01:43:39 10° WSW 02:03:25 66° S 02:18:36 10° E daylight
16 May - 04:00:29 10° W 04:18:55 61° SSW 04:30:41 10° ESE visible
16 May - 06:18:51 10° W 06:31:48 33° SW 06:40:09 10° SSE visible
16 May - 20:13:25 10° SE 20:18:17 12° SE 20:23:28 10° ESE daylight
16 May - 22:15:42 10° SSW 22:31:06 37° SE 22:47:48 10° E daylight
17 May - 00:27:24 10° WSW 00:46:25 61° SSE 01:03:24 10° E daylight
17 May - 02:42:56 10° W 03:02:37 67° S 03:16:37 10° ESE visible
17 May - 05:00:31 10° W 05:17:07 48° SSW 05:27:36 10° SE visible
17 May - 07:20:45 10° W 07:28:27 17° SW 07:34:19 10° SSW visible
17 May - 21:03:13 10° S 21:15:27 25° SE 21:29:34 10° E daylight
17 May - 23:12:11 10° SW 23:29:33 52° SSE 23:47:26 10° E daylight
18 May - 01:26:00 10° WSW 01:45:43 68° S 02:01:52 10° E daylight
18 May - 03:42:37 10° W 04:01:30 60° SSW 04:14:09 10° ESE visible
18 May - 06:01:05 10° W 06:14:31 31° SW 06:23:30 10° SSE visible
18 May - 19:53:53 10° SSE 20:00:33 14° SE 20:08:00 10° ESE daylight
18 May - 21:58:08 10° SSW 22:13:11 40° SE 22:30:33 10° E daylight
19 May - 00:09:55 10° WSW 00:28:35 63° SSE 00:46:24 10° E daylight
19 May - 02:25:13 10° W 02:45:01 67° S 02:59:57 10° ESE daylight
19 May - 04:42:38 10° W 04:59:42 46° SSW 05:11:00 10° SE visible
19 May - 07:03:32 10° W 07:11:10 16° SW 07:17:09 10° SSW visible
19 May - 20:45:31 10° S 20:57:37 28° SE 21:12:22 10° E daylight
19 May - 22:54:49 10° SW 23:11:39 55° SSE 23:30:13 10° E daylight
20 May - 01:08:30 10° WSW 01:27:58 69° S 01:44:59 10° E daylight
20 May - 03:24:49 10° W 03:43:57 58° SSW 03:57:30 10° SE visible
20 May - 05:43:21 10° W 05:57:06 30° SW 06:06:41 10° SSE visible
20 May - 19:35:22 10° SSE 19:42:51 16° SE 19:51:37 10° E daylight
20 May - 21:40:49 10° SSW 21:55:18 43° SSE 22:13:10 10° E daylight
20 May - 23:52:36 10° WSW 00:10:44 65° SSE 00:29:18 10° E daylight
21 May - 02:07:37 10° W 02:27:20 66° S 02:43:09 10° ESE daylight
21 May - 04:24:49 10° W 04:42:10 44° SSW 04:54:16 10° SSE visible
21 May - 06:46:30 10° W 06:53:44 15° SW 06:59:41 10° SSW visible
21 May - 20:28:05 10° S 20:39:49 30° SE 20:54:58 10° E daylight
21 May - 22:37:38 10° SW 22:53:47 57° SSE 23:12:51 10° E daylight
